Regional Weather Roundup
Issued by NWS

Home | Current Version | Previous Version | Text Only | Print | Product List | Glossary On
Versions: 1 2 3 4 5 6 7 8 9 10 11 12 13 14 15 16 17 18 19 20 21 22 23 24 25 26 27
000
ASUS46 KPQR 221410
RWROR

OREGON REGIONAL WEATHER ROUNDUP
NATIONAL WEATHER SERVICE PORTLAND OR
600 AM PST MON JAN 22 2018

NOTE: "FAIR" INDICATES FEW OR NO CLOUDS BELOW 12,000 FEET WITH
NO SIGNIFICANT WEATHER AND/OR OBSTRUCTIONS TO VISIBILITY.

ORZ001>013-221500-
NORTHWEST OREGON


CITY           SKY/WX    TMP DP  RH WIND       PRES   REMARKS
ASTORIA        MOCLDY    45  41  86 SW5       30.17R
TILLAMOOK      CLOUDY    43  43 100 SE5       30.22R
NEWPORT        DRIZZLE   45  41  87 SW9G18    30.26R
PORTLAND       LGT RAIN  44  42  93 SW5       30.23R
VANCOUVER WA   LGT RAIN  44  43  96 CALM      30.22R
SCAPPOOSE      LGT RAIN  42  41  96 SE5       30.21R
HILLSBORO      LGT RAIN  42  40  92 S3        30.21R
AURORA         CLOUDY    44  41  89 S9        30.23R
MCMINNVILLE    CLOUDY    42  41  96 CALM      30.22R
SALEM          LGT RAIN  44  40  85 S12       30.24R
CORVALLIS      CLOUDY    41  40  96 S10       30.26R
EUGENE         LGT RAIN  42  42 100 S8        30.28R
$$

ORZ021-028-221500-
SOUTHWEST OREGON


CITY           SKY/WX    TMP DP  RH WIND       PRES   REMARKS
NORTH BEND     CLOUDY    43  42  97 SE13        N/A
BROOKINGS      MOCLDY    42  40  92 VRB3      30.31R
ROSEBURG       FOG       39  38  96 CALM      30.29S VSB 1
SEXTON SUMMIT  FOG       31  30  96 S8        30.20S VSB 1/4
GRANTS PASS    FOG       39  37  93 CALM      30.33S VSB<1/4
MEDFORD        FOG       38  38 100 CALM      30.29S VSB 1
$$

ORZ014>016-041-221500-
COLUMBIA GORGE


CITY           SKY/WX    TMP DP  RH WIND       PRES   REMARKS
TROUTDALE      LGT RAIN  42  40  92 CALM      30.23R
HOOD RIVER     SNOW      34  34 100 CALM      30.19R VSB 1/4
THE DALLES     CLOUDY    34  33  96 S3        30.21R
$$

ORZ029>031-041-044-049-050-061>064-502-503-505>511-221500-
EASTERN OREGON


CITY           SKY/WX    TMP DP  RH WIND       PRES   REMARKS
MADRAS         CLOUDY   N/A N/A N/A S3        30.20R
REDMOND        PTCLDY    26  23  88 CALM      30.17R
BEND           CLEAR     32  25  74 SW8       30.17R
PRINEVILLE     PTCLDY    30  28  93 CALM      30.18R
KLAMATH FALLS  MOCLDY    33  29  85 W14       30.20R WCI  23
LAKEVIEW       CLOUDY    32  29  88 S10       30.19R WCI  24
HERMISTON      CLEAR     33  30  88 S8        30.18R
PENDLETON      PTCLDY    34  31  88 SE5       30.17R
JOHN DAY       MOCLDY    32  32  99 W3        30.15R
MEACHAM        PTCLDY    28  26  92 CALM      30.12R
LA GRANDE      LGT RAIN  36  31  82 CALM      30.16R
BAKER CITY     CLOUDY    32  29  88 CALM      30.13R
BURNS          CLOUDY    28  28 100 CALM      30.15R
ROME             N/A     36  29  75 W6        30.13R
ONTARIO        CLOUDY    37  34  89 S13       30.19R WCI  29
$$




USA.gov is the U.S. government's official web portal to all federal, state and local government web resources and services.